Location: *
(32.8140°S, 174.6161°E)
Time: 15:37:46
(UTC+00:00)

CZ-2D R/B - Pass Details

Date: 10 December 2019
Orbit: 792 x 845 km, 98.6° (Epoch: 18 January)

Event Time Altitude Azimuth Distance (km) Brightness Sun altitude
Exits shadow 13:05:51 49° 158° (SSE) 1,054 2.9 -32.9°
Drops below altitude 10° 13:09:54 10° 185° (S) 2,413 5.3 -32.7°
Sets 13:12:16 0° 188° (S) 3,344 6.2 -32.6°
